Content
SEND FEEDBACK

Daily
Averages
Monthly
Summary
United States of America

AUDUBON, NEW JERSEY


Home > North America > United States > New Jersey
Elevation: 4 feet     Latitude: 39 53N     Longitude: 075 05W

WEATHER
 
SELECT A DAY
Number of Records: 207,824;   Date Range: 1/1/95 - 10/24/14
 
SHARE

PRINT THIS DATA

[ ← Previous Day ]
WEATHER ALMANAC - JANUARY 23, 2013
[ Next Day → ]
[ °C ]   °F
Weather ElementAverageHighLow
Temperature17.2 °F21 °F (2:54 pm)12.9 °F (4:54 am)
Dewpoint-2.2 °F1.9 °F (11:54 pm)-5.1 °F (1:54 am)
Humidity42.9 %54 % (5:54 am)33 % (12:54 pm)
Barometer30.26 in30.33 in (9:54 am)30.20 in (11:54 pm)
Wind Speed9 mph18.4 mph (2:54 pm)
Wind Gust25.3 mph (10:54 am)
Weather ElementAverage
Visibility10 mi
Wind DirectionWSW (250 °)

Weather ElementTotal
Precipitation---
Heating Degree Days48.1 (Base 65)
Averaged from 23 records on January 23, 2013
WEATHER CONDITIONS BREAKOUT
WIND DIRECTION BREAKOUT
WEATHER BY HOUR - JANUARY 23, 2013
[ °C ]   °F
Local TimeTemperatureDewpointHumidityBarometerVisibilityWind DirectionWind SpeedGust SpeedPrecipitationEventsConditions
1:54 AM14.0 °F-5.1 °F43 %30.28 in10.0 miWest (280°)10.4 mphClear
2:54 AM14.0 °F-5.1 °F43 %30.29 in10.0 miWest (270°)9.2 mphPartly Cloudy
3:54 AM14.0 °F-2.9 °F47 %30.28 in10.0 miWest (270°)9.2 mphPartly Cloudy
4:54 AM12.9 °F-2.0 °F51 %30.28 in10.0 miWest (260°)8.1 mphPartly Cloudy
5:54 AM12.9 °F-0.9 °F54 %30.29 in10.0 miWest (280°)11.5 mphClear
6:54 AM12.9 °F-2.0 °F51 %30.30 in10.0 miWest (280°)9.2 mphPartly Cloudy
7:54 AM14.0 °F-0.9 °F52 %30.31 in10.0 miWest (270°)10.4 mphClear
8:54 AM15.1 °F-2.0 °F47 %30.32 in10.0 miWest (280°)13.8 mphClear
9:54 AM17.1 °F-2.0 °F43 %30.33 in10.0 miWest (280°)10.4 mphScattered Clouds
10:54 AM19.0 °F-2.9 °F38 %30.32 in10.0 miWNW (300°)11.5 mph25.3 mphScattered Clouds
11:54 AM19.0 °F-2.9 °F38 %30.28 in10.0 miWest (280°)12.7 mph23.0 mphMostly Cloudy
12:54 PM19.9 °F-5.1 °F33 %30.24 in10.0 miWNW (290°)9.2 mph17.3 mphMostly Cloudy
1:54 PM19.9 °F-2.9 °F37 %30.23 in10.0 miWNW (300°)10.4 mphMostly Cloudy
2:54 PM21.0 °F-4.0 °F33 %30.23 in10.0 miWest (270°)18.4 mphMostly Cloudy
3:54 PM19.9 °F-2.9 °F37 %30.23 in10.0 miWest (280°)15.0 mphMostly Cloudy
4:54 PM19.9 °F-2.9 °F37 %30.23 in10.0 miWNW (300°)11.5 mphScattered Clouds
5:54 PM19.9 °F-2.0 °F38 %30.25 in10.0 miWNW (290°)9.2 mphScattered Clouds
6:54 PM19.9 °F-2.0 °F38 %30.24 in10.0 miWest (280°)5.8 mphScattered Clouds
7:54 PM19.9 °F-2.0 °F38 %30.23 in10.0 miCalmScattered Clouds
8:54 PM17.1 °F-0.9 °F45 %30.22 in10.0 miNNW (340°)3.5 mphPartly Cloudy
9:54 PM18.0 °F0.0 °F45 %30.23 in10.0 miNNW (340°)4.6 mphPartly Cloudy
10:54 PM18.0 °F1.0 °F48 %30.22 in10.0 miNorth (10°)3.5 mphOvercast
11:54 PM18.0 °F1.9 °F50 %30.20 in10.0 miCalmOvercast
Hourly data recorded from KPHL, located miles away from Audubon, New Jersey







STORIES FROM OUR PARTNERS